Location: Newark
(44.2003°N, 3.2583°E)
Time: 15:00:23
(UTC+00:00)

Vanguard 2 - Visible Passes

Search period start: 17 October 2019 00:00
Search period end: 27 October 2019 00:00
Orbit: 554 x 2937 km, 32.9° (Epoch: 16 October)

Date Brightness Start Highest point End Pass type
(mag) Time Alt. Az. Time Alt. Az. Time Alt. Az.
17 Oct 10.2 17:53:57 10° SSW 18:02:11 33° SSE 18:11:51 15° E visible
17 Oct 10.0 20:00:30 10° WSW 20:11:37 52° S 20:13:14 50° SSE visible
17 Oct 10.9 22:09:11 10° W 22:14:37 29° WSW 22:14:37 29° WSW visible
18 Oct 10.0 18:11:09 10° SW 18:19:42 38° SSE 18:28:24 20° ESE visible
18 Oct 10.0 20:18:13 10° WSW 20:29:28 53° S 20:29:47 52° S visible
18 Oct 11.1 22:27:11 10° W 22:31:10 23° WSW 22:31:10 23° WSW visible
19 Oct 9.9 18:28:33 10° SW 18:37:18 43° SSE 18:44:57 25° ESE visible
19 Oct 10.0 20:36:01 10° WSW 20:46:19 51° SSW 20:46:19 51° SSW visible
19 Oct 11.3 22:45:18 10° W 22:47:43 17° WSW 22:47:43 17° WSW visible
20 Oct 9.9 18:46:05 10° WSW 18:55:00 46° SSE 19:01:30 30° ESE visible
20 Oct 10.2 20:53:53 10° WSW 21:02:52 46° SSW 21:02:52 46° SSW visible
20 Oct 11.5 23:03:33 10° W 23:04:16 12° W 23:04:16 12° W visible
21 Oct 9.8 19:03:44 10° WSW 19:12:47 48° S 19:18:04 35° SE visible
21 Oct 10.4 21:11:48 10° W 21:19:26 39° SW 21:19:26 39° SW visible
22 Oct 9.8 17:14:47 10° SW 17:21:34 35° SSE 17:32:03 10° E visible
22 Oct 9.8 19:21:28 10° WSW 19:30:36 48° S 19:34:38 39° SE visible
22 Oct 10.6 21:29:49 10° W 21:36:01 32° SW 21:36:01 32° SW visible
23 Oct 9.7 17:32:12 10° SW 17:39:11 39° SSE 17:49:51 11° ESE visible
23 Oct 9.9 19:39:16 10° WSW 19:48:27 47° S 19:51:13 42° SSE visible
23 Oct 10.9 21:47:58 10° W 21:52:37 25° WSW 21:52:37 25° WSW visible
24 Oct 9.7 17:49:46 10° SW 17:56:53 42° SSE 18:06:28 14° ESE visible
24 Oct 10.0 19:57:07 10° WSW 20:06:20 43° S 20:07:52 42° S visible
24 Oct 11.1 22:06:19 10° W 22:09:15 18° WSW 22:09:15 18° WSW visible
25 Oct 9.7 18:07:27 10° WSW 18:14:39 43° S 18:23:09 18° ESE visible
25 Oct 10.1 20:15:05 10° WSW 20:24:12 39° SSW 20:24:32 39° S visible
25 Oct 11.4 22:25:00 10° WSW 22:25:56 12° WSW 22:25:56 12° WSW visible
26 Oct 9.7 18:25:11 10° WSW 18:32:28 42° S 18:39:52 21° SE visible
26 Oct 10.3 20:33:09 10° WSW 20:41:16 34° SSW 20:41:16 34° SSW visible
